Regional Weather Roundup
Issued by NWS Sterling, VA

Home | Current Version | Previous Version | Text Only | Print | Product List | Glossary On
Versions: 1 2 3 4 5 6 7 8 9 10 11 12 13 14 15 16 17 18 19 20 21 22 23 24 25 26 27 28 29 30 31 32 33 34 35 36 37 38 39 40 41 42 43 44 45 46 47 48 49 50
000
ASUS41 KLWX 020210
RWRLWX

REGIONAL WEATHER ROUNDUP
NATIONAL WEATHER SERVICE BALTIMORE MD/WASHINGTON DC
1000 PM EDT MON SEP 01 2014

Note: "FAIR" indicates few or no clouds below 12,000 feet
with no significant weather and/or obstructions to visibility.
 TC=TEMPERATURE CELSIUS

 * =Non NWS site. Station does not report precipitation (e.g. rain,
    snow, etc.), thunder, or fog.

DCZ001-MDZ009-015-VAZ040>042-051-053>054-020300-
WASHINGTON METRO

CITY           SKY/WX    TMP DP  RH WIND       PRES   REMARKS
WASHINGTON NAT PTCLDY    83  75  77 S5        29.97R HX  90
DULLES         PTCLDY    78  73  84 S3        29.97S
ANDREWS AFB    CLEAR     76  75  95 CALM      29.98R
QUANTICO       CLEAR     79  75  87 CALM      29.97R
COLLEGE PARK*  CLEAR     77  75  94 CALM      29.97R
LEESBURG*      MOCLDY    77  77 100 CALM      29.98S
MANASSAS*      CLEAR     79  77  94 CALM      29.97R
GAITHERSBURG*  PTCLDY    75  72  88 CALM      30.02R

$$

MDZ006>007-011-014-020300-
BALTIMORE METRO

CITY           SKY/WX    TMP DP  RH WIND       PRES   REMARKS
BWI AIRPORT    PTCLDY    78  74  87 CALM      29.97R
MD SCIENCE CTR   N/A     83  73  72 MISG      29.97R
MARTIN STATE   PTCLDY    79  77  94 CALM      29.97R
ANNAPOLIS      CLEAR     80  76  87 CALM      29.97R
FORT MEADE*    CLEAR     73  72  94 CALM      29.99R

$$

MDZ012-015-019>023-020300-
MARYLAND EASTERN SHORE

CITY           SKY/WX    TMP DP  RH WIND       PRES   REMARKS
OCEAN CITY     CLEAR     80  71  74 SW6       29.99R
SALISBURY      CLEAR     79  70  74 CALM      29.98S
BAY BRIDGE AP*   N/A     79  75  89 S3        29.97R

$$

MDZ017>025-020300-
SOUTHERN MARYLAND

CITY           SKY/WX    TMP DP  RH WIND       PRES   REMARKS
PATUXENT RIVER CLEAR     79  73  82 SW6       29.97R
ST INIGOES     CLEAR     75  70  84 CALM      29.97R
LEONARDTOWN*   CLEAR     79  70  73 CALM      29.99S

$$

MDZ003>005-020300-
NORTH CENTRAL MARYLAND

CITY           SKY/WX    TMP DP  RH WIND       PRES   REMARKS
FREDERICK*     CLEAR     75  75 100 CALM      30.00R
HAGERSTOWN APT MOCLDY    80  73  79 CALM      29.98R
WESTMINSTER*   CLEAR     79  73  83 CALM      30.00R

$$

MDZ501>502-020300-
WESTERN MARYLAND

CITY           SKY/WX    TMP DP  RH WIND       PRES   REMARKS
OAKLAND*       PTCLDY    68  68 100 SW9G18    30.12R
CUMBERLAND*    PTCLDY    81  64  57 SW3       30.03R

$$

VAZ025>031-020300-
SHENANDOAH VALLEY

CITY           SKY/WX    TMP DP  RH WIND       PRES   REMARKS
WINCHESTER*    PTCLDY    79  68  69 W5        29.99R
STAUNTON*      MOCLDY    78  65  64 S3        30.07R

$$

WVZ021-048>050-054>055-020300-
EASTERN WEST VIRGINIA PANHANDLE

CITY           SKY/WX    TMP DP  RH WIND       PRES   REMARKS
MARTINSBURG    PTCLDY    79  70  74 W3        29.99R
PETERSBURG*    NOT AVBL

$$

VAZ036>039-050-020300-
CENTRAL FOOTHILLS

CITY           SKY/WX    TMP DP  RH WIND       PRES   REMARKS
CHARLOTTESVILL CLEAR     79  70  74 CALM      30.01R
ORANGE*        CLEAR     77  70  78 CALM      30.01R

$$

VAZ055>057-020300-
NORTH AND CENTRAL PIEDMONT

CITY           SKY/WX    TMP DP  RH WIND       PRES   REMARKS
FREDERICKSBRG* CLEAR     80  74  81 S5        29.96S
STAFFORD*      PTCLDY    76  76 100 CALM      30.01S

$$

NCZ024-NYZ072-PAZ021-071-VAZ022-071-020300-
OTHER REGIONAL OBSERVATIONS

CITY           SKY/WX    TMP DP  RH WIND       PRES   REMARKS
NEW YORK CITY  CLEAR     81  70  69 VRB3      29.97R
PHILADELPHIA   MOCLDY    81  73  76 S7        29.95S
PITTSBURGH     MOCLDY    75  70  84 S8        29.96R
ROANOKE        CLEAR     79  66  64 CALM      30.09R
RICHMOND       PTCLDY    84  70  62 SW8       30.00R
RALEIGH        PTCLDY    77  71  82 CALM      30.06R

$$

ANZ530>537-020300-
MARINE OBSERVATIONS

STATION/POSITION TIME  TEMP    WIND        PRES
                       AIR SEA DIR/SP/G
                 (UTC) (F)     (DEG/KT/KT) (MB)
THOMAS PT LIGHT  0200   80 79  190/  8/  9 1015.7R
BALT KEY BRIDGE  0200          220/  5/  6 1014.5R
COVE POINT       0200   81     190/  7/  8 1014.7S
LEWISETTA        0200   79 82  230/  4/  5 1014.6S
SOLOMONS ISLAND  0200      81                N/A
PINEY POINT      0200          230/  6/  7   N/A

$$



USA.gov is the U.S. government's official web portal to all federal, state and local government web resources and services.